Regional Weather Roundup
Issued by NWS

Home | Current Version | Previous Version | Graphics & Text | Print | Product List | Glossary On
Versions: 1 2 3 4 5 6 7 8 9 10 11 12 13 14 15 16 17 18 19 20 21 22 23 24 25 26 27 28 29 30 31 32 33 34 35 36 37 38 39 40 41 42 43 44 45 46 47 48 49 50
000
ASUS43 KLMK 281810
RWRKY
KENTUCKY REGIONAL WEATHER ROUNDUP
NATIONAL WEATHER SERVICE LOUISVILLE KY
200 PM EDT SAT MAR 28 2015

NOTE "FAIR" INDICATES FEW OR NO CLOUDS BELOW 12,000 FEET
WITH NO SIGNIFICANT WEATHER AND/OR OBSTRUCTIONS TO VISIBILITY.

KYZ001>023-026-027-061>063-070>075-281900-
WESTERN AND SOUTH CENTRAL KENTUCKY

CITY           SKY/WX    TMP DP  RH WIND       PRES   REMARKS
PADUCAH        SUNNY     42  20  41 N8        30.33S
HENDERSON      SUNNY     36  19  51 CALM      30.34S
OWENSBORO      SUNNY     35  19  52 NE9       30.33F WCI  28
HOPKINSVILLE   SUNNY     39  17  40 VRB5      30.30S
BOWLING GREEN  SUNNY     39  12  33 CALM      30.30S
GLASGOW        SUNNY     38  15  40 NW5       30.28S WCI  34
$$

KYZ024-025-028>034-038-045-046-053-281900-
NORTH CENTRAL KENTUCKY

CITY           SKY/WX    TMP DP  RH WIND       PRES   REMARKS
LOUISVILLE/SDF MOSUNNY   38  15  39 NE9       30.31S WCI  31
LOUISVILLE/LOU SUNNY     37  15  40 VRB6      30.31S WCI  32
FORT KNOX      SUNNY     36  13  38 VRB2      30.28S
$$

KYZ035>037-039>044-047>052-055>060-089>105-281900-
NORTHEAST KENTUCKY

CITY           SKY/WX    TMP DP  RH WIND       PRES   REMARKS
LEXINGTON      SUNNY     36  13  38 VRB7      30.26S WCI  30
COVINGTON      MOSUNNY   34  14  43 N14       30.28S WCI  25
FRANKFORT      SUNNY     36  11  35 NE9       30.26S WCI  29
$$

KYZ054-064>069-076>088-106>120-281900-
SOUTHEAST KENTUCKY

CITY           SKY/WX    TMP DP  RH WIND       PRES   REMARKS
JACKSON        SUNNY     36  10  34 VRB5      30.19S WCI  32
LONDON         MOSUNNY   38  11  32 VRB5      30.21S WCI  34
SOMERSET       SUNNY     34  14  44 N8        30.26S WCI  27
MIDDLESBORO    MOSUNNY   39  16  39 W5        30.20S
MONTICELLO     CLEAR     38  16  41 N9        30.28R WCI  31
$$



USA.gov is the U.S. government's official web portal to all federal, state and local government web resources and services.